contact:dominique.lefevre@mio.osupytheas.fr, maurice.libes@osupytheas.fr, didier.mallarino@osupytheas.fr
Project:EMSO http://www.emso-fr.org/EMSO-France
Depth: 2436.0 m
Title:EMSO Ligure Ouest : Data MII capteur MICROCAT
DateTime_Computer,Latitude,Longitude,Temperature,Conductivity,Pressure,DateTime_Instrument
DateTime_Computer,Latitude,Longitude,degC,S m-1,dbar,DateTime_Instrument
2019-11-14T00:02:49Z,42.805,6.029,13.2967,4.59974,2469.923,2019-11-14T02:03:17Z
2019-11-14T00:05:52Z,42.805,6.029,13.2964,4.59966,2469.9,2019-11-14T02:06:20Z
2019-11-14T00:08:55Z,42.805,6.029,13.2964,4.59985,2469.937,2019-11-14T02:09:23Z
2019-11-14T00:11:59Z,42.805,6.029,13.2967,4.59968,2469.937,2019-11-14T02:12:26Z
2019-11-14T00:15:02Z,42.805,6.029,13.2966,4.59971,2469.863,2019-11-14T02:15:29Z
2019-11-14T00:18:05Z,42.805,6.029,13.2962,4.60015,2469.923,2019-11-14T02:18:33Z
2019-11-14T00:21:08Z,42.805,6.029,13.2972,4.59996,2469.937,2019-11-14T02:21:36Z
2019-11-14T00:24:11Z,42.805,6.029,13.2967,4.59996,2469.89,2019-11-14T02:24:39Z
2019-11-14T00:27:15Z,42.805,6.029,13.3018,4.60036,2469.923,2019-11-14T02:27:42Z
2019-11-14T00:30:18Z,42.805,6.029,13.2998,4.60052,2469.927,2019-11-14T02:30:46Z
2019-11-14T00:33:21Z,42.805,6.029,13.3004,4.59980,2469.9,2019-11-14T02:33:49Z
2019-11-14T00:36:24Z,42.805,6.029,13.3011,4.59983,2469.923,2019-11-14T02:36:52Z
2019-11-14T00:39:27Z,42.805,6.029,13.3009,4.60030,2469.914,2019-11-14T02:39:55Z
2019-11-14T00:42:31Z,42.805,6.029,13.3012,4.60040,2469.914,2019-11-14T02:42:58Z
2019-11-14T00:45:34Z,42.805,6.029,13.3011,4.60057,2469.914,2019-11-14T02:46:02Z
2019-11-14T00:48:37Z,42.805,6.029,13.3011,4.60048,2469.923,2019-11-14T02:49:05Z
2019-11-14T00:51:40Z,42.805,6.029,13.3000,4.60035,2469.89,2019-11-14T02:52:08Z
2019-11-14T00:54:44Z,42.805,6.029,13.3056,4.60040,2469.867,2019-11-14T02:55:11Z
2019-11-14T00:57:47Z,42.805,6.029,13.3067,4.60034,2469.9,2019-11-14T02:58:15Z
2019-11-14T01:00:50Z,42.805,6.029,13.3004,4.60044,2469.9,2019-11-14T03:01:18Z
2019-11-14T01:03:53Z,42.805,6.029,13.3014,4.60056,2469.89,2019-11-14T03:04:21Z
2019-11-14T01:06:56Z,42.805,6.029,13.2983,4.60045,2469.89,2019-11-14T03:07:24Z
2019-11-14T01:10:00Z,42.805,6.029,13.2991,4.60049,2469.867,2019-11-14T03:10:27Z
2019-11-14T01:13:03Z,42.805,6.029,13.3022,4.60021,2469.9,2019-11-14T03:13:31Z
2019-11-14T01:16:06Z,42.805,6.029,13.3000,4.60033,2469.914,2019-11-14T03:16:34Z
2019-11-14T01:19:09Z,42.805,6.029,13.3015,4.60058,2469.867,2019-11-14T03:19:37Z
2019-11-14T01:22:13Z,42.805,6.029,13.3007,4.60051,2469.853,2019-11-14T03:22:40Z
2019-11-14T01:25:16Z,42.805,6.029,13.2999,4.60035,2469.853,2019-11-14T03:25:44Z
2019-11-14T01:28:19Z,42.805,6.029,13.2992,4.60011,2469.876,2019-11-14T03:28:47Z
2019-11-14T01:31:23Z,42.805,6.029,13.2979,4.60023,2469.853,2019-11-14T03:31:50Z
2019-11-14T01:34:26Z,42.805,6.029,13.2996,4.60016,2469.914,2019-11-14T03:34:53Z
2019-11-14T01:37:29Z,42.805,6.029,13.2989,4.60056,2469.876,2019-11-14T03:37:57Z
2019-11-14T01:40:32Z,42.805,6.029,13.3000,4.60033,2469.876,2019-11-14T03:41:00Z
2019-11-14T01:43:36Z,42.805,6.029,13.2997,4.60029,2469.89,2019-11-14T03:44:03Z
2019-11-14T01:46:39Z,42.805,6.029,13.3029,4.60001,2469.853,2019-11-14T03:47:06Z
2019-11-14T01:49:42Z,42.805,6.029,13.3038,4.59996,2469.876,2019-11-14T03:50:10Z
2019-11-14T01:52:45Z,42.805,6.029,13.3010,4.59981,2469.844,2019-11-14T03:53:13Z
2019-11-14T01:55:48Z,42.805,6.029,13.3022,4.60005,2469.806,2019-11-14T03:56:16Z
2019-11-14T01:58:52Z,42.805,6.029,13.2978,4.60005,2469.867,2019-11-14T03:59:19Z
2019-11-14T02:01:55Z,42.805,6.029,13.2993,4.60016,2469.876,2019-11-14T04:02:22Z
2019-11-14T02:04:58Z,42.805,6.029,13.2979,4.60006,2469.876,2019-11-14T04:05:26Z
2019-11-14T02:08:01Z,42.805,6.029,13.2990,4.60024,2469.853,2019-11-14T04:08:29Z
2019-11-14T02:11:04Z,42.805,6.029,13.2983,4.60015,2469.89,2019-11-14T04:11:32Z
2019-11-14T02:14:08Z,42.805,6.029,13.3012,4.59991,2469.867,2019-11-14T04:14:35Z
2019-11-14T02:17:11Z,42.805,6.029,13.2984,4.60016,2469.876,2019-11-14T04:17:39Z
2019-11-14T02:20:14Z,42.805,6.029,13.3008,4.60008,2469.867,2019-11-14T04:20:42Z
2019-11-14T02:23:17Z,42.805,6.029,13.3020,4.60010,2469.853,2019-11-14T04:23:45Z
2019-11-14T02:26:21Z,42.805,6.029,13.2995,4.59999,2469.853,2019-11-14T04:26:48Z
2019-11-14T02:29:24Z,42.805,6.029,13.2981,4.60011,2469.89,2019-11-14T04:29:51Z
2019-11-14T02:32:27Z,42.805,6.029,13.2991,4.59995,2469.867,2019-11-14T04:32:55Z
2019-11-14T02:35:30Z,42.805,6.029,13.3012,4.59991,2469.867,2019-11-14T04:35:58Z
2019-11-14T02:38:33Z,42.805,6.029,13.3018,4.59990,2469.83,2019-11-14T04:39:01Z
2019-11-14T02:41:37Z,42.805,6.029,13.2996,4.59996,2469.876,2019-11-14T04:42:04Z
2019-11-14T02:44:40Z,42.805,6.029,13.3009,4.59999,2469.853,2019-11-14T04:45:08Z
2019-11-14T02:47:43Z,42.805,6.029,13.3013,4.59985,2469.867,2019-11-14T04:48:11Z
2019-11-14T02:50:46Z,42.805,6.029,13.3009,4.60001,2469.844,2019-11-14T04:51:14Z
2019-11-14T02:53:50Z,42.805,6.029,13.3000,4.59996,2469.867,2019-11-14T04:54:17Z
2019-11-14T02:56:53Z,42.805,6.029,13.2984,4.59998,2469.89,2019-11-14T04:57:21Z
2019-11-14T02:59:56Z,42.805,6.029,13.2990,4.60001,2469.867,2019-11-14T05:00:24Z
2019-11-14T03:02:59Z,42.805,6.029,13.3007,4.59991,2469.853,2019-11-14T05:03:27Z
2019-11-14T03:06:03Z,42.805,6.029,13.2996,4.59987,2469.89,2019-11-14T05:06:30Z
2019-11-14T03:09:06Z,42.805,6.029,13.2993,4.60001,2469.853,2019-11-14T05:09:33Z
2019-11-14T03:12:09Z,42.805,6.029,13.3002,4.59994,2469.853,2019-11-14T05:12:37Z
2019-11-14T03:15:12Z,42.805,6.029,13.2999,4.59987,2469.876,2019-11-14T05:15:40Z
2019-11-14T03:18:16Z,42.805,6.029,13.2999,4.59990,2469.867,2019-11-14T05:18:43Z
2019-11-14T03:21:19Z,42.805,6.029,13.3002,4.59999,2469.876,2019-11-14T05:21:46Z
2019-11-14T03:24:22Z,42.805,6.029,13.2998,4.60000,2469.867,2019-11-14T05:24:50Z
2019-11-14T03:27:25Z,42.805,6.029,13.3015,4.59983,2469.867,2019-11-14T05:27:53Z
2019-11-14T03:30:29Z,42.805,6.029,13.2985,4.59998,2469.89,2019-11-14T05:30:56Z
2019-11-14T03:33:32Z,42.805,6.029,13.2998,4.59995,2469.853,2019-11-14T05:34:00Z
2019-11-14T03:36:35Z,42.805,6.029,13.2992,4.59981,2469.867,2019-11-14T05:37:03Z
2019-11-14T03:39:38Z,42.805,6.029,13.2998,4.59976,2469.89,2019-11-14T05:40:06Z
2019-11-14T03:42:42Z,42.805,6.029,13.2988,4.59988,2469.89,2019-11-14T05:43:09Z
2019-11-14T03:45:45Z,42.805,6.029,13.2998,4.59982,2469.867,2019-11-14T05:46:12Z
2019-11-14T03:48:48Z,42.805,6.029,13.2990,4.59990,2469.914,2019-11-14T05:49:16Z
2019-11-14T03:51:51Z,42.805,6.029,13.2991,4.59991,2469.9,2019-11-14T05:52:19Z
2019-11-14T03:54:55Z,42.805,6.029,13.3003,4.59983,2469.853,2019-11-14T05:55:22Z
2019-11-14T03:57:58Z,42.805,6.029,13.2988,4.59986,2469.937,2019-11-14T05:58:25Z
2019-11-14T04:01:01Z,42.805,6.029,13.2996,4.59983,2469.9,2019-11-14T06:01:29Z
2019-11-14T04:04:04Z,42.805,6.029,13.2989,4.59986,2469.9,2019-11-14T06:04:32Z
2019-11-14T04:07:08Z,42.805,6.029,13.2994,4.59984,2469.89,2019-11-14T06:07:35Z
2019-11-14T04:10:11Z,42.805,6.029,13.2995,4.59981,2469.914,2019-11-14T06:10:38Z
2019-11-14T04:13:14Z,42.805,6.029,13.2993,4.59992,2469.876,2019-11-14T06:13:42Z
2019-11-14T04:16:17Z,42.805,6.029,13.2991,4.59991,2469.937,2019-11-14T06:16:45Z
2019-11-14T04:19:20Z,42.805,6.029,13.2982,4.59977,2469.914,2019-11-14T06:19:48Z
2019-11-14T04:22:24Z,42.805,6.029,13.2986,4.59998,2469.853,2019-11-14T06:22:51Z
2019-11-14T04:25:27Z,42.805,6.029,13.2983,4.59987,2469.9,2019-11-14T06:25:55Z
2019-11-14T04:28:30Z,42.805,6.029,13.2992,4.59979,2469.937,2019-11-14T06:28:58Z
2019-11-14T04:31:33Z,42.805,6.029,13.2987,4.59985,2469.876,2019-11-14T06:32:01Z
2019-11-14T04:34:37Z,42.805,6.029,13.2992,4.59999,2469.876,2019-11-14T06:35:04Z
2019-11-14T04:37:40Z,42.805,6.029,13.2996,4.59987,2469.923,2019-11-14T06:38:07Z
2019-11-14T04:40:43Z,42.805,6.029,13.2989,4.59982,2469.876,2019-11-14T06:41:11Z
2019-11-14T04:43:46Z,42.805,6.029,13.2986,4.59983,2469.914,2019-11-14T06:44:14Z
2019-11-14T04:46:49Z,42.805,6.029,13.3001,4.59983,2469.96,2019-11-14T06:47:17Z
2019-11-14T04:49:53Z,42.805,6.029,13.2986,4.59981,2469.96,2019-11-14T06:50:20Z
2019-11-14T04:52:56Z,42.805,6.029,13.2980,4.59984,2469.947,2019-11-14T06:53:24Z
2019-11-14T04:55:59Z,42.805,6.029,13.2985,4.59985,2469.96,2019-11-14T06:56:27Z
2019-11-14T04:59:02Z,42.805,6.029,13.2998,4.59979,2469.937,2019-11-14T06:59:30Z
2019-11-14T05:02:06Z,42.805,6.029,13.2990,4.59981,2469.984,2019-11-14T07:02:33Z
2019-11-14T05:05:09Z,42.805,6.029,13.2985,4.60003,2469.96,2019-11-14T07:05:37Z
2019-11-14T05:08:12Z,42.805,6.029,13.3008,4.59981,2469.97,2019-11-14T07:08:40Z
2019-11-14T05:11:15Z,42.805,6.029,13.2982,4.59983,2469.947,2019-11-14T07:11:43Z
2019-11-14T05:14:19Z,42.805,6.029,13.2983,4.59988,2469.96,2019-11-14T07:14:46Z
2019-11-14T05:17:22Z,42.805,6.029,13.2990,4.59986,2469.97,2019-11-14T07:17:50Z
2019-11-14T05:20:25Z,42.805,6.029,13.2983,4.59997,2469.97,2019-11-14T07:20:53Z
2019-11-14T05:23:28Z,42.805,6.029,13.2988,4.59976,2469.984,2019-11-14T07:23:56Z
2019-11-14T05:26:32Z,42.805,6.029,13.2991,4.59980,2469.984,2019-11-14T07:26:59Z
2019-11-14T05:29:35Z,42.805,6.029,13.2983,4.59991,2469.96,2019-11-14T07:30:03Z
2019-11-14T05:32:38Z,42.805,6.029,13.2992,4.59981,2469.947,2019-11-14T07:33:06Z
2019-11-14T05:35:41Z,42.805,6.029,13.2979,4.59983,2469.984,2019-11-14T07:36:09Z
2019-11-14T05:38:44Z,42.805,6.029,13.2986,4.59981,2469.993,2019-11-14T07:39:12Z
2019-11-14T05:41:48Z,42.805,6.029,13.2981,4.59981,2470.007,2019-11-14T07:42:15Z
2019-11-14T05:44:51Z,42.805,6.029,13.2982,4.59983,2469.96,2019-11-14T07:45:19Z
2019-11-14T05:47:54Z,42.805,6.029,13.2994,4.59983,2469.97,2019-11-14T07:48:22Z
2019-11-14T05:50:58Z,42.805,6.029,13.2982,4.59978,2469.97,2019-11-14T07:51:25Z
2019-11-14T05:54:01Z,42.805,6.029,13.2987,4.59983,2469.993,2019-11-14T07:54:29Z
2019-11-14T05:57:04Z,42.805,6.029,13.2983,4.59992,2470.017,2019-11-14T07:57:32Z
2019-11-14T06:00:08Z,42.805,6.029,13.2997,4.59992,2470.007,2019-11-14T08:00:35Z
2019-11-14T06:03:11Z,42.805,6.029,13.2995,4.59984,2470.017,2019-11-14T08:03:38Z
2019-11-14T06:06:14Z,42.805,6.029,13.2983,4.59978,2470.017,2019-11-14T08:06:42Z
2019-11-14T06:09:17Z,42.805,6.029,13.2991,4.59998,2470.007,2019-11-14T08:09:45Z
2019-11-14T06:12:20Z,42.805,6.029,13.2996,4.60002,2470.053,2019-11-14T08:12:48Z
2019-11-14T06:15:24Z,42.805,6.029,13.2998,4.60018,2470.03,2019-11-14T08:15:51Z
2019-11-14T06:18:27Z,42.805,6.029,13.2992,4.59983,2470.007,2019-11-14T08:18:55Z
2019-11-14T06:21:30Z,42.805,6.029,13.2986,4.59980,2470.03,2019-11-14T08:21:58Z
2019-11-14T06:24:33Z,42.805,6.029,13.2991,4.59978,2469.993,2019-11-14T08:25:01Z
2019-11-14T06:27:36Z,42.805,6.029,13.2991,4.59990,2470.04,2019-11-14T08:28:04Z
2019-11-14T06:30:40Z,42.805,6.029,13.2983,4.59984,2470.04,2019-11-14T08:31:07Z
2019-11-14T06:33:43Z,42.805,6.029,13.3007,4.59992,2470.053,2019-11-14T08:34:11Z
2019-11-14T06:36:46Z,42.805,6.029,13.2986,4.59994,2470.063,2019-11-14T08:37:14Z
2019-11-14T06:39:49Z,42.805,6.029,13.2979,4.59984,2470.053,2019-11-14T08:40:17Z
2019-11-14T06:42:53Z,42.805,6.029,13.2985,4.59978,2470.063,2019-11-14T08:43:20Z
2019-11-14T06:45:56Z,42.805,6.029,13.2982,4.59985,2470.04,2019-11-14T08:46:23Z
2019-11-14T06:48:59Z,42.805,6.029,13.2986,4.59988,2470.087,2019-11-14T08:49:27Z
2019-11-14T06:52:02Z,42.805,6.029,13.2989,4.59984,2470.063,2019-11-14T08:52:30Z
2019-11-14T06:55:06Z,42.805,6.029,13.2975,4.59996,2470.077,2019-11-14T08:55:33Z
2019-11-14T06:58:09Z,42.805,6.029,13.2981,4.59976,2470.063,2019-11-14T08:58:36Z
2019-11-14T07:01:12Z,42.805,6.029,13.2979,4.59978,2470.063,2019-11-14T09:01:40Z
2019-11-14T07:04:15Z,42.805,6.029,13.2988,4.59987,2470.053,2019-11-14T09:04:43Z
2019-11-14T07:07:18Z,42.805,6.029,13.2990,4.59978,2470.077,2019-11-14T09:07:46Z
2019-11-14T07:10:22Z,42.805,6.029,13.2983,4.59977,2470.077,2019-11-14T09:10:49Z
2019-11-14T07:13:25Z,42.805,6.029,13.2998,4.59998,2470.077,2019-11-14T09:13:53Z
2019-11-14T07:16:28Z,42.805,6.029,13.2998,4.59985,2470.077,2019-11-14T09:16:56Z
2019-11-14T07:19:31Z,42.805,6.029,13.3000,4.59986,2470.007,2019-11-14T09:19:59Z
2019-11-14T07:22:34Z,42.805,6.029,13.2988,4.60003,2470.1,2019-11-14T09:23:02Z
2019-11-14T07:25:38Z,42.805,6.029,13.2998,4.60009,2470.04,2019-11-14T09:26:05Z
2019-11-14T07:28:41Z,42.805,6.029,13.2996,4.59991,2470.1,2019-11-14T09:29:09Z
2019-11-14T07:31:44Z,42.805,6.029,13.2983,4.60003,2470.1,2019-11-14T09:32:12Z
2019-11-14T07:34:47Z,42.805,6.029,13.2990,4.59999,2470.04,2019-11-14T09:35:15Z
2019-11-14T07:37:51Z,42.805,6.029,13.2968,4.59983,2470.063,2019-11-14T09:38:18Z
2019-11-14T07:40:54Z,42.805,6.029,13.2974,4.59991,2470.087,2019-11-14T09:41:21Z
2019-11-14T07:43:57Z,42.805,6.029,13.2971,4.59993,2470.077,2019-11-14T09:44:25Z
2019-11-14T07:47:00Z,42.805,6.029,13.2963,4.59979,2470.063,2019-11-14T09:47:28Z
2019-11-14T07:50:03Z,42.805,6.029,13.2967,4.59986,2470.077,2019-11-14T09:50:31Z
2019-11-14T07:53:07Z,42.805,6.029,13.2967,4.59974,2470.077,2019-11-14T09:53:34Z
2019-11-14T07:56:10Z,42.805,6.029,13.2967,4.59979,2470.063,2019-11-14T09:56:37Z
2019-11-14T07:59:13Z,42.805,6.029,13.2963,4.59975,2470.063,2019-11-14T09:59:41Z
2019-11-14T08:02:16Z,42.805,6.029,13.2966,4.59975,2470.063,2019-11-14T10:02:44Z
2019-11-14T08:05:19Z,42.805,6.029,13.2966,4.59973,2470.063,2019-11-14T10:05:47Z
2019-11-14T08:08:23Z,42.805,6.029,13.2963,4.59975,2470.053,2019-11-14T10:08:50Z
2019-11-14T08:11:26Z,42.805,6.029,13.2964,4.59968,2470.063,2019-11-14T10:11:54Z
2019-11-14T08:14:29Z,42.805,6.029,13.2965,4.59968,2470.077,2019-11-14T10:14:57Z
2019-11-14T08:17:32Z,42.805,6.029,13.2964,4.59966,2470.063,2019-11-14T10:18:00Z
2019-11-14T08:20:36Z,42.805,6.029,13.2964,4.59966,2470.087,2019-11-14T10:21:03Z
2019-11-14T08:23:39Z,42.805,6.029,13.2962,4.59966,2470.073,2019-11-14T10:24:06Z
2019-11-14T08:26:42Z,42.805,6.029,13.2958,4.59966,2470.087,2019-11-14T10:27:10Z
2019-11-14T08:29:45Z,42.805,6.029,13.2960,4.59964,2470.063,2019-11-14T10:30:13Z
2019-11-14T08:32:48Z,42.805,6.029,13.2961,4.59964,2470.063,2019-11-14T10:33:16Z
2019-11-14T08:35:52Z,42.805,6.029,13.2961,4.59964,2470.04,2019-11-14T10:36:20Z
2019-11-14T08:38:55Z,42.805,6.029,13.2961,4.59964,2470.087,2019-11-14T10:39:23Z
2019-11-14T08:41:58Z,42.805,6.029,13.2962,4.59963,2470.077,2019-11-14T10:42:26Z
2019-11-14T08:45:02Z,42.805,6.029,13.2964,4.59964,2470.077,2019-11-14T10:45:29Z
2019-11-14T08:48:05Z,42.805,6.029,13.2961,4.59966,2470.063,2019-11-14T10:48:32Z
2019-11-14T08:51:08Z,42.805,6.029,13.2966,4.59964,2470.1,2019-11-14T10:51:36Z
2019-11-14T08:54:11Z,42.805,6.029,13.2965,4.59963,2470.077,2019-11-14T10:54:39Z
2019-11-14T08:57:15Z,42.805,6.029,13.2967,4.59963,2470.077,2019-11-14T10:57:42Z
2019-11-14T09:00:18Z,42.805,6.029,13.2967,4.59965,2470.063,2019-11-14T11:00:46Z
2019-11-14T09:03:21Z,42.805,6.029,13.2962,4.59964,2470.087,2019-11-14T11:03:49Z
2019-11-14T09:06:24Z,42.805,6.029,13.2965,4.59963,2470.063,2019-11-14T11:06:52Z
2019-11-14T09:09:28Z,42.805,6.029,13.2962,4.59964,2470.063,2019-11-14T11:09:55Z
2019-11-14T09:12:31Z,42.805,6.029,13.2963,4.59964,2470.1,2019-11-14T11:12:59Z
2019-11-14T09:15:34Z,42.805,6.029,13.2963,4.59964,2470.04,2019-11-14T11:16:02Z
2019-11-14T09:18:37Z,42.805,6.029,13.2960,4.59964,2470.063,2019-11-14T11:19:05Z
2019-11-14T09:21:41Z,42.805,6.029,13.2964,4.59964,2470.1,2019-11-14T11:22:08Z
2019-11-14T09:24:44Z,42.805,6.029,13.2961,4.59963,2470.087,2019-11-14T11:25:12Z
2019-11-14T09:27:47Z,42.805,6.029,13.2959,4.59963,2470.04,2019-11-14T11:28:15Z
2019-11-14T09:30:50Z,42.805,6.029,13.2964,4.59964,2470.053,2019-11-14T11:31:18Z
2019-11-14T09:33:54Z,42.805,6.029,13.2959,4.59964,2470.017,2019-11-14T11:34:21Z
2019-11-14T09:36:57Z,42.805,6.029,13.2966,4.59964,2470.063,2019-11-14T11:37:24Z
2019-11-14T09:40:00Z,42.805,6.029,13.2962,4.59964,2470.04,2019-11-14T11:40:28Z
2019-11-14T09:43:03Z,42.805,6.029,13.2962,4.59964,2470.04,2019-11-14T11:43:31Z
2019-11-14T09:46:06Z,42.805,6.029,13.2965,4.59963,2470.077,2019-11-14T11:46:34Z
2019-11-14T09:49:10Z,42.805,6.029,13.2963,4.59964,2470.04,2019-11-14T11:49:37Z
2019-11-14T09:52:13Z,42.805,6.029,13.2960,4.59966,2470.063,2019-11-14T11:52:41Z
2019-11-14T09:55:16Z,42.805,6.029,13.2964,4.59966,2470.04,2019-11-14T11:55:44Z
2019-11-14T09:58:19Z,42.805,6.029,13.2961,4.59966,2470.04,2019-11-14T11:58:47Z
2019-11-14T10:01:23Z,42.805,6.029,13.2964,4.59963,2470.053,2019-11-14T12:01:50Z
2019-11-14T10:04:26Z,42.805,6.029,13.2958,4.59963,2470.017,2019-11-14T12:04:54Z
2019-11-14T10:07:29Z,42.805,6.029,13.2964,4.59964,2470.03,2019-11-14T12:07:57Z
2019-11-14T10:10:32Z,42.805,6.029,13.2964,4.59964,2470.03,2019-11-14T12:11:00Z
2019-11-14T10:13:36Z,42.805,6.029,13.2958,4.59963,2470.053,2019-11-14T12:14:03Z
2019-11-14T10:16:39Z,42.805,6.029,13.2963,4.59963,2470.007,2019-11-14T12:17:07Z
2019-11-14T10:19:42Z,42.805,6.029,13.2964,4.59964,2470.03,2019-11-14T12:20:10Z
2019-11-14T10:22:45Z,42.805,6.029,13.2960,4.59963,2470.053,2019-11-14T12:23:13Z
2019-11-14T10:25:49Z,42.805,6.029,13.2961,4.59962,2470.017,2019-11-14T12:26:16Z
2019-11-14T10:28:52Z,42.805,6.029,13.2964,4.59964,2470.04,2019-11-14T12:29:20Z
2019-11-14T10:31:55Z,42.805,6.029,13.2961,4.59964,2470.007,2019-11-14T12:32:23Z
2019-11-14T10:34:58Z,42.805,6.029,13.2962,4.59964,2470.017,2019-11-14T12:35:26Z
2019-11-14T10:38:02Z,42.805,6.029,13.2962,4.59964,2470.017,2019-11-14T12:38:29Z
2019-11-14T10:41:05Z,42.805,6.029,13.2961,4.59964,2470.017,2019-11-14T12:41:33Z
2019-11-14T10:44:08Z,42.805,6.029,13.2958,4.59965,2470.03,2019-11-14T12:44:36Z
2019-11-14T10:47:11Z,42.805,6.029,13.2966,4.59964,2470.03,2019-11-14T12:47:39Z
2019-11-14T10:50:15Z,42.805,6.029,13.2961,4.59963,2470.017,2019-11-14T12:50:42Z
2019-11-14T10:53:18Z,42.805,6.029,13.2957,4.59964,2469.993,2019-11-14T12:53:46Z
2019-11-14T10:56:21Z,42.805,6.029,13.2961,4.59964,2470.03,2019-11-14T12:56:49Z
2019-11-14T10:59:24Z,42.805,6.029,13.2958,4.59963,2470.03,2019-11-14T12:59:52Z
2019-11-14T11:02:28Z,42.805,6.029,13.2961,4.59962,2470.03,2019-11-14T13:02:55Z
2019-11-14T11:05:31Z,42.805,6.029,13.2966,4.59963,2470.03,2019-11-14T13:05:59Z
2019-11-14T11:08:34Z,42.805,6.029,13.2960,4.59963,2470.03,2019-11-14T13:09:02Z
2019-11-14T11:11:37Z,42.805,6.029,13.2960,4.59964,2469.97,2019-11-14T13:12:05Z
2019-11-14T11:14:40Z,42.805,6.029,13.2962,4.59966,2469.984,2019-11-14T13:15:08Z
2019-11-14T11:17:44Z,42.805,6.029,13.2964,4.59964,2469.956,2019-11-14T13:18:11Z
2019-11-14T11:20:47Z,42.805,6.029,13.2966,4.59963,2469.993,2019-11-14T13:21:15Z
2019-11-14T11:23:50Z,42.805,6.029,13.2965,4.59963,2470.017,2019-11-14T13:24:18Z
2019-11-14T11:26:54Z,42.805,6.029,13.2960,4.59964,2469.993,2019-11-14T13:27:21Z
2019-11-14T11:29:57Z,42.805,6.029,13.2959,4.59964,2469.96,2019-11-14T13:30:25Z
2019-11-14T11:33:00Z,42.805,6.029,13.2964,4.59963,2469.947,2019-11-14T13:33:28Z
2019-11-14T11:36:03Z,42.805,6.029,13.2963,4.59964,2469.993,2019-11-14T13:36:31Z
2019-11-14T11:39:07Z,42.805,6.029,13.2962,4.59964,2469.96,2019-11-14T13:39:34Z
2019-11-14T11:42:10Z,42.805,6.029,13.2964,4.59964,2469.97,2019-11-14T13:42:38Z
2019-11-14T11:45:13Z,42.805,6.029,13.2958,4.59965,2470.007,2019-11-14T13:45:41Z
2019-11-14T11:48:16Z,42.805,6.029,13.2964,4.59966,2469.96,2019-11-14T13:48:44Z
2019-11-14T11:51:19Z,42.805,6.029,13.2960,4.59966,2469.937,2019-11-14T13:51:47Z
2019-11-14T11:54:23Z,42.805,6.029,13.2963,4.59965,2469.97,2019-11-14T13:54:50Z
2019-11-14T11:57:26Z,42.805,6.029,13.2962,4.59964,2469.96,2019-11-14T13:57:54Z
2019-11-14T12:00:29Z,42.805,6.029,13.2961,4.59964,2469.97,2019-11-14T14:00:57Z
2019-11-14T12:03:32Z,42.805,6.029,13.2961,4.59966,2469.97,2019-11-14T14:04:00Z
2019-11-14T12:06:36Z,42.805,6.029,13.2967,4.59966,2469.947,2019-11-14T14:07:04Z
2019-11-14T12:09:39Z,42.805,6.029,13.2961,4.59963,2469.984,2019-11-14T14:10:07Z
2019-11-14T12:12:42Z,42.805,6.029,13.2964,4.59964,2469.937,2019-11-14T14:13:10Z
2019-11-14T12:15:46Z,42.805,6.029,13.2967,4.59964,2469.947,2019-11-14T14:16:13Z
2019-11-14T12:18:49Z,42.805,6.029,13.2962,4.59966,2469.947,2019-11-14T14:19:16Z
2019-11-14T12:21:52Z,42.805,6.029,13.2962,4.59963,2469.947,2019-11-14T14:22:20Z
2019-11-14T12:24:55Z,42.805,6.029,13.2964,4.59963,2469.96,2019-11-14T14:25:23Z
2019-11-14T12:27:58Z,42.805,6.029,13.2961,4.59961,2469.923,2019-11-14T14:28:26Z
2019-11-14T12:31:02Z,42.805,6.029,13.2961,4.59963,2469.947,2019-11-14T14:31:29Z
2019-11-14T12:34:05Z,42.805,6.029,13.2963,4.59961,2469.914,2019-11-14T14:34:33Z
2019-11-14T12:37:08Z,42.805,6.029,13.2962,4.59964,2469.937,2019-11-14T14:37:36Z
2019-11-14T12:40:12Z,42.805,6.029,13.2962,4.59961,2469.923,2019-11-14T14:40:39Z
2019-11-14T12:43:15Z,42.805,6.029,13.2958,4.59963,2469.9,2019-11-14T14:43:43Z
2019-11-14T12:46:18Z,42.805,6.029,13.2962,4.59965,2469.96,2019-11-14T14:46:46Z
2019-11-14T12:49:21Z,42.805,6.029,13.2967,4.59963,2469.937,2019-11-14T14:49:49Z
2019-11-14T12:52:24Z,42.805,6.029,13.2959,4.59964,2469.937,2019-11-14T14:52:52Z
2019-11-14T12:55:28Z,42.805,6.029,13.2959,4.59962,2469.937,2019-11-14T14:55:55Z
2019-11-14T12:58:31Z,42.805,6.029,13.2961,4.59963,2469.947,2019-11-14T14:58:59Z
2019-11-14T13:01:34Z,42.805,6.029,13.2963,4.59964,2469.923,2019-11-14T15:02:02Z
2019-11-14T13:04:38Z,42.805,6.029,13.2962,4.59965,2469.923,2019-11-14T15:05:05Z
2019-11-14T13:07:41Z,42.805,6.029,13.2962,4.59961,2469.923,2019-11-14T15:08:09Z
2019-11-14T13:10:44Z,42.805,6.029,13.2959,4.59964,2469.9,2019-11-14T15:11:12Z
2019-11-14T13:13:47Z,42.805,6.029,13.2961,4.59966,2469.9,2019-11-14T15:14:15Z
2019-11-14T13:16:50Z,42.805,6.029,13.2962,4.59963,2469.914,2019-11-14T15:17:18Z
2019-11-14T13:19:54Z,42.805,6.029,13.2958,4.59963,2469.923,2019-11-14T15:20:21Z
2019-11-14T13:22:57Z,42.805,6.029,13.2961,4.59965,2469.923,2019-11-14T15:23:25Z
2019-11-14T13:26:00Z,42.805,6.029,13.2964,4.59962,2469.923,2019-11-14T15:26:28Z
2019-11-14T13:29:03Z,42.805,6.029,13.2964,4.59963,2469.923,2019-11-14T15:29:31Z
2019-11-14T13:32:07Z,42.805,6.029,13.2962,4.59972,2469.9,2019-11-14T15:32:34Z
2019-11-14T13:35:10Z,42.805,6.029,13.2964,4.59964,2469.937,2019-11-14T15:35:38Z
2019-11-14T13:38:13Z,42.805,6.029,13.2960,4.59966,2469.876,2019-11-14T15:38:41Z
2019-11-14T13:41:16Z,42.805,6.029,13.2959,4.59964,2469.923,2019-11-14T15:41:44Z
2019-11-14T13:44:20Z,42.805,6.029,13.2961,4.59971,2469.914,2019-11-14T15:44:47Z
2019-11-14T13:47:23Z,42.805,6.029,13.2963,4.59967,2469.886,2019-11-14T15:47:51Z
2019-11-14T13:50:26Z,42.805,6.029,13.2958,4.59968,2469.923,2019-11-14T15:50:54Z
2019-11-14T13:53:29Z,42.805,6.029,13.2962,4.59964,2469.89,2019-11-14T15:53:57Z
2019-11-14T13:56:33Z,42.805,6.029,13.2960,4.59966,2469.9,2019-11-14T15:57:00Z
2019-11-14T13:59:36Z,42.805,6.029,13.2959,4.59968,2469.89,2019-11-14T16:00:04Z
2019-11-14T14:02:39Z,42.805,6.029,13.2962,4.59971,2469.9,2019-11-14T16:03:07Z
2019-11-14T14:05:42Z,42.805,6.029,13.2961,4.59968,2469.89,2019-11-14T16:06:10Z
2019-11-14T14:08:46Z,42.805,6.029,13.2960,4.59966,2469.89,2019-11-14T16:09:14Z
2019-11-14T14:11:49Z,42.805,6.029,13.2960,4.59964,2469.876,2019-11-14T16:12:17Z
2019-11-14T14:14:52Z,42.805,6.029,13.2961,4.59964,2469.89,2019-11-14T16:15:20Z
2019-11-14T14:17:56Z,42.805,6.029,13.2963,4.59963,2469.89,2019-11-14T16:18:23Z
2019-11-14T14:20:59Z,42.805,6.029,13.2962,4.59962,2469.876,2019-11-14T16:21:27Z
2019-11-14T14:24:02Z,42.805,6.029,13.2960,4.59969,2469.863,2019-11-14T16:24:30Z
2019-11-14T14:27:05Z,42.805,6.029,13.2959,4.59964,2469.9,2019-11-14T16:27:33Z
2019-11-14T14:30:09Z,42.805,6.029,13.2961,4.59964,2469.876,2019-11-14T16:30:36Z
2019-11-14T14:33:12Z,42.805,6.029,13.2958,4.59974,2469.937,2019-11-14T16:33:40Z
2019-11-14T14:36:15Z,42.805,6.029,13.2964,4.59966,2469.876,2019-11-14T16:36:43Z
2019-11-14T14:39:18Z,42.805,6.029,13.2961,4.59962,2469.89,2019-11-14T16:39:46Z
2019-11-14T14:42:22Z,42.805,6.029,13.2961,4.59963,2469.876,2019-11-14T16:42:49Z
2019-11-14T14:45:25Z,42.805,6.029,13.2963,4.59966,2469.9,2019-11-14T16:45:53Z
2019-11-14T14:48:28Z,42.805,6.029,13.2963,4.59964,2469.876,2019-11-14T16:48:56Z
2019-11-14T14:51:31Z,42.805,6.029,13.2960,4.59962,2469.876,2019-11-14T16:51:59Z
2019-11-14T14:54:35Z,42.805,6.029,13.2964,4.59964,2469.876,2019-11-14T16:55:02Z
2019-11-14T14:57:38Z,42.805,6.029,13.2962,4.59968,2469.876,2019-11-14T16:58:06Z
2019-11-14T15:00:41Z,42.805,6.029,13.2963,4.59975,2469.876,2019-11-14T17:01:09Z
2019-11-14T15:03:44Z,42.805,6.029,13.2959,4.59966,2469.937,2019-11-14T17:04:12Z